Location: Franzen
(48.6167°N, 15.3833°E)
Time: 18:43:01
(UTC+00:00)

A-11 Canister half - Pass Details

Date: 04 August 2021
Orbit: 1515 x 1685 km, 47.2° (Epoch: 19 September)

Event Time Altitude Azimuth Distance (km) Brightness Sun altitude
Rises 19:50:51 0° 284° (WNW) 4,869 12.8 -11.5°
Reaches altitude 10° 19:53:59 10° 282° (WNW) 3,900 12.1 -11.9°
Maximum altitude 20:03:52 65° 204° (SSW) 1,811 9.3 -13.1°
Enters shadow 20:12:08 17° 127° (SE) 3,424 10.2 -14.0°
Drops below altitude 10° 20:13:52 10° 125° (SE) 3,944 - -14.2°
Sets 20:17:04 0° 123° (ESE) 4,927 - -14.6°
